Home   Weather   Leon   Past weeks
Flag for Mexico

Past Weather in Leon, Guanajuato, Mexico — Yesterday and Last 2 Weeks

Now
73 °F

Broken clouds.


Feels Like: 77 °F
Forecast: 78 / 62 °F
Wind: 10 mph from Southwest

Location: Del Bajio / Leon

Current Time: Oct 18, 2019 at 7:15:12 pm

Latest Report: Oct 18, 2019 at 5:40 pm


Visibility: 10 mi

Pressure: 30.10 "Hg (24.43 "Hg at 1808m altitude)

Humidity: 57%

Dew Point: 57 °F

Location of LeonLocation

Past Weather in Leon — Graph

°F

Leon Temperature Yesterday

Maximum temperature yesterday: 77 °F (at 2:41 pm)
Minimum temperature yesterday: 59 °F (at 7:45 am)
Average temperature yesterday: 68 °F

High & Low Weather Summary for the Past Weeks

 TemperatureHumidityPressure
High86 °F (Oct 11, 3:40 pm)100% (Oct 17, 7:45 am)30.37 "Hg (Oct 17, 7:45 am)
Low50 °F (Oct 8, 6:40 am)21% (Oct 11, 6:40 pm)29.61 "Hg (Oct 9, 12:43 am)
Average69 °F60%30.11 "Hg
* Reported Oct 3 5:43 pm — Oct 18 5:40 pm, Leon. Weather by CustomWeather, © 2019

Note: Actual official high and low records may vary slightly from our data, if they occured in-between our weather recording intervals... More about our weather records

Advertising

Leon Weather History for the Previous 24 Hours

Scroll right to see more
 ConditionsComfort  
Time TempWeatherWind HumidityBarometerVisibility
5:40 pm
Fri, Oct 18
73 °FBroken clouds.10 mph57%30.10 "Hg10 mi
4:40 pm77 °FBroken clouds.8 mph51%30.10 "Hg10 mi
3:40 pm79 °FPartly sunny.No wind45%29.70 "Hg10 mi
2:40 pm79 °FPartly sunny.8 mph45%30.14 "Hg10 mi
1:41 pm75 °FPartly sunny.5 mph50%30.18 "Hg10 mi
12:40 pm73 °FPartly sunny.8 mph57%29.81 "Hg10 mi
11:43 am72 °FPartly sunny.No wind65%30.23 "Hg10 mi
10:50 am66 °FPartly sunny.5 mph83%30.24 "Hg9 mi
9:43 am64 °FBroken clouds.5 mph88%29.85 "Hg8 mi
8:45 am63 °FOvercast.No wind88%30.22 "Hg6 mi
7:40 am61 °FMostly cloudy.5 mph94%30.22 "Hg7 mi
6:40 am61 °FPartly cloudy.No wind94%29.83 "Hg7 mi
5:40 am61 °FPartly cloudy.No wind94%30.20 "Hg7 mi
4:40 am61 °FMostly cloudy.No wind94%30.21 "Hg6 mi
12:40 am64 °FPartly cloudy.8 mph83%29.83 "Hg8 mi
11:40 pm
Thu, Oct 17
64 °FPartly cloudy.7 mph83%30.22 "Hg8 mi
10:40 pm68 °FPartly cloudy.7 mph69%30.21 "Hg8 mi
9:40 pm70 °FMostly cloudy.No wind64%29.82 "Hg8 mi
8:43 pm70 °FPartly cloudy.No wind64%30.17 "Hg8 mi
7:43 pm72 °FPartly cloudy.No wind57%30.15 "Hg8 mi
Weather by CustomWeather, © 2019

See weather overview